Dewpoint
46 49 48 48 49 47 48 47 48 49 49 49 49 49 49 48 49 51 51 53 52 51 52 54 56 59 60 61 62 63 64 65 64 65 66 67 65 67 67 68 67 66 65 66 68 68 69 67 68 67 65 64 65 64 62 61 65 65 64 66 68 66 67 67 67 67 67 67 68 68 67 67 67 66 66 66 66 67 66 66 66 66 67 67 67
47 49 49 48 47 48 47 46 48 48 49 49 49 48 49 49 49 50 51 52 52 53 51 53 57 59 61 61 62 62 63 64 64 65 66 66 68 66 67 65 67 66 67 67 68 69 67 68 69 65 65 65 66 65 63 63 65 65 66 66 65 67 67 66 67 66 65 65 64 65 67 67 67 68 66 66 66 67 67 68 68 67 67 67 67
47 47 48 47 47 46 45 48 48 49 48 48 50 49 50 49 49 50 51 51 51 52 52 52 55 58 61 62 62 65 65 65 65 65 67 67 65 66 66 65 63 64 66 67 68 68 68 68 68 68 67 64 67 66 65 68 67 65 65 62 61 65 67 69 69 66 65 65 66 63 63 63 65 67 68 67 66 66 66 66 66 68 68 67 67
47 47 46 47 46 45 46 46 47 48 47 47 49 49 48 48 49 50 50 52 51 52 53 54 55 57 60 62 63 63 64 64 64 64 65 66 66 67 67 67 65 65 66 67 67 68 68 69 69 69 67 66 64 65 63 60 64 65 63 62 63 64 64 68 68 68 66 66 62 62 62 62 62 63 65 67 68 68 66 65 66 66 67 68 67
48 46 47 46 45 45 45 45 46 45 47 48 50 48 47 49 49 50 50 51 52 52 53 54 54 55 58 60 62 62 64 64 64 64 64 64 64 64 65 65 66 67 66 67 67 68 69 70 70 69 68 69 66 64 63 60 61 62 61 62 63 63 63 67 68 69 68 66 63 61 60 60 58 63 64 65 67 67 67 66 67 67 66 67 66
47 46 46 45 45 45 45 45 45 44 46 48 49 48 49 48 49 50 49 50 51 53 53 53 53 53 55 56 57 60 60 62 62 62 62 62 62 64 65 67 66 65 65 66 66 67 70 71 69 67 69 69 66 63 64 60 61 60 59 62 61 63 64 66 68 69 69 66 67 69 63 57 63 63 61 60 68 68 67 65 67 68 68 67 67
47 46 46 45 44 45 45 45 44 44 45 46 48 50 50 49 50 50 49 49 51 53 53 53 52 52 54 56 57 57 59 61 63 62 63 63 65 64 65 65 65 67 66 66 67 67 66 68 67 67 68 68 67 66 64 63 61 58 60 62 60 61 65 65 67 67 68 68 68 67 68 65 62 64 58 63 63 65 67 66 67 69 69 68 67
45 45 45 45 45 45 44 44 44 45 45 46 49 49 50 50 50 49 49 49 51 52 53 54 52 53 54 55 55 56 57 59 61 62 64 62 63 65 64 65 66 65 66 65 65 65 66 66 65 66 67 67 67 67 66 65 62 61 62 63 63 62 65 66 66 66 66 65 66 68 66 66 65 61 58 60 59 62 63 66 68 67 68 68 68
44 43 45 44 45 44 44 45 45 46 47 47 46 48 49 50 49 49 48 49 50 52 52 52 54 53 53 53 54 55 57 58 63 64 63 63 61 63 65 65 66 65 66 66 66 65 67 67 67 67 66 66 65 64 66 64 64 64 66 65 64 62 65 65 68 66 66 64 65 65 65 62 60 61 62 61 55 58 61 64 63 66 67 67 68
42 44 44 45 45 45 45 45 45 46 47 47 47 47 47 49 49 48 48 47 49 51 52 52 53 53 52 54 54 54 55 57 60 62 63 62 62 61 65 64 65 66 67 66 65 65 65 66 68 67 67 67 67 67 67 68 68 67 67 67 68 67 66 65 65 67 66 65 66 65 64 63 61 60 61 60 60 59 55 63 64 64 63 65 67
41 44 43 44 45 45 45 45 44 44 46 47 47 45 47 48 49 47 47 47 48 49 51 51 52 53 53 53 54 53 55 55 57 59 62 61 61 60 63 64 66 66 67 67 66 64 65 66 67 67 67 67 68 67 68 67 69 69 69 68 67 67 65 65 65 65 66 66 63 63 61 61 61 59 60 60 59 60 57 54 62 61 62 66 67
40 39 36 43 43 44 45 44 44 44 45 47 47 48 47 47 47 47 47 47 48 48 49 50 49 51 52 54 53 54 54 54 56 57 58 59 61 63 64 65 65 65 66 66 66 65 65 66 67 66 66 66 67 67 66 66 67 68 68 68 68 68 68 66 66 64 65 64 64 62 61 61 60 58 58 59 60 59 59 59 58 59 61 57 66
38 38 40 42 42 45 45 43 43 44 45 47 48 49 47 47 47 46 47 47 47 48 49 49 50 50 51 52 53 54 53 54 54 55 57 57 59 61 60 61 63 65 64 64 66 65 65 65 66 66 65 67 67 68 68 67 68 68 67 67 68 68 68 68 65 65 65 64 62 64 62 60 59 58 58 58 59 59 60 58 56 55 59 59 62
37 37 38 41 43 43 43 42 42 44 45 46 48 48 46 47 46 45 46 48 48 49 49 49 49 50 51 52 52 53 53 53 54 54 54 56 57 58 60 62 61 63 63 63 66 65 66 66 65 67 67 67 67 66 67 67 68 65 68 68 67 68 68 69 69 68 67 66 66 64 63 60 60 60 60 59 59 59 58 57 57 57 61 59 58
33 35 38 42 44 44 43 43 44 44 46 46 47 46 45 44 44 45 46 47 48 48 49 49 49 49 50 50 51 53 52 52 52 53 55 55 56 57 57 60 62 62 62 63 62 63 64 65 64 65 66 66 66 65 66 67 67 67 68 69 69 69 69 69 69 69 68 67 67 65 64 63 61 60 60 61 59 59 58 58 57 54 54 56 55
33 36 40 44 44 43 43 43 43 44 45 46 47 46 45 43 45 46 46 46 47 48 48 49 49 49 49 50 51 52 52 52 52 53 53 54 55 56 57 57 58 59 60 61 62 62 63 64 64 65 64 66 64 63 64 64 65 66 65 68 69 67 68 69 69 68 68 69 68 67 65 62 63 62 61 60 60 60 60 60 59 58 55 51 53
35 34 37 43 42 42 42 42 43 44 45 46 46 45 44 45 45 46 46 47 48 48 48 48 49 48 49 50 50 51 51 51 51 53 54 54 54 55 58 56 57 57 58 59 60 61 62 63 63 64 64 64 64 64 64 64 64 65 66 67 68 68 68 67 68 68 68 68 68 68 66 64 63 65 64 62 62 63 62 60 59 58 59 55 52
35 39 41 42 42 42 41 42 42 43 45 46 45 44 44 45 45 45 45 46 47 47 47 47 48 48 49 49 50 50 50 50 51 51 53 53 53 53 55 57 55 56 57 57 58 59 60 60 61 62 62 62 64 63 65 65 65 65 65 65 66 68 68 68 68 67 68 69 67 67 67 65 65 67 66 67 65 65 64 62 61 60 59 57 55
39 39 39 40 41 40 42 43 42 43 44 45 43 41 44 45 45 45 45 46 47 48 47 48 48 48 49 49 49 49 50 50 50 51 52 52 51 52 53 53 55 55 57 57 57 57 57 58 59 60 62 62 63 63 65 66 66 65 63 64 65 66 66 67 68 68 68 67 67 67 68 67 68 68 68 68 67 66 64 63 62 61 60 60 58
37 38 38 39 40 41 41 42 41 42 42 43 44 42 43 44 45 45 45 46 46 47 48 48 49 49 49 49 49 48 48 49 50 50 51 50 51 51 52 52 53 54 55 56 56 55 56 56 57 58 58 60 60 61 63 64 65 66 65 64 65 65 64 65 66 67 67 67 67 67 67 67 67 67 68 68 66 66 66 63 62 62 61 62 60
39 39 38 40 41 42 42 42 41 41 41 43 42 42 42 43 43 44 45 45 46 47 47 48 48 48 49 49 50 50 50 49 50 50 51 51 51 52 52 53 52 52 53 53 53 54 54 56 54 55 55 58 59 60 61 63 64 64 65 65 64 63 63 63 64 65 65 67 66 65 64 66 67 67 67 66 65 64 65 65 64 61 60 62 61
41 41 41 39 41 42 42 41 41 40 41 42 40 41 41 43 41 43 44 45 46 46 46 47 48 48 49 49 50 50 50 50 51 51 51 51 51 51 52 51 53 52 53 52 51 51 53 54 53 53 54 55 56 57 59 61 60 63 64 64 66 64 64 62 64 63 64 65 66 65 63 64 64 65 66 64 64 63 63 63 63 63 60 61 62
41 41 40 40 41 41 40 41 39 39 39 40 39 39 41 42 41 43 44 46 46 46 46 46 47 48 49 49 50 50 50 51 51 51 51 51 51 52 51 52 51 51 51 52 52 52 52 52 52 53 53 54 54 55 58 59 60 60 60 63 64 65 64 63 63 63 63 64 64 65 64 64 65 65 66 65 65 64 64 63 63 62 62 62 62
42 41 41 40 40 41 39 38 37 36 39 38 39 39 40 41 42 44 44 46 46 46 46 46 47 48 48 49 50 51 51 51 51 52 52 53 53 53 52 52 51 52 51 52 51 52 51 52 52 52 52 53 55 57 56 56 58 59 59 60 61 62 63 63 62 62 62 63 63 64 64 64 65 65 65 65 64 65 65 65 65 64 64 64 64
41 40 40 40 40 39 36 35 35 36 34 38 38 39 39 41 42 43 45 45 45 45 46 47 48 48 48 49 50 51 52 52 52 53 53 53 53 53 54 52 53 53 53 53 53 51 51 51 52 51 51 51 54 58 58 59 60 60 59 60 60 60 61 61 63 62 62 62 63 63 63 64 64 65 65 64 64 65 64 65 65 64 63 64 64
39 40 40 41 39 37 38 39 35 35 32 36 38 38 39 39 42 44 43 45 46 46 45 47 47 48 49 49 50 51 51 52 52 53 54 54 54 54 54 54 53 53 54 54 53 53 53 51 50 50 51 51 51 53 58 59 60 60 59 58 59 59 60 60 60 62 61 61 62 62 62 63 62 63 63 63 64 65 65 65 65 64 62 62 64
39 39 40 40 39 41 39 39 36 36 35 35 36 37 38 40 41 42 42 45 45 47 47 47 48 48 48 49 49 50 51 52 53 54 54 54 54 54 54 53 53 53 53 53 54 53 53 52 51 51 50 50 51 51 52 52 53 54 55 56 58 58 58 59 60 60 60 61 62 62 63 63 63 63 63 63 64 66 65 65 65 65 64 62 63
38 39 39 38 39 40 40 39 38 36 35 36 35 36 38 40 40 40 41 43 45 46 46 46 47 47 48 48 49 50 51 52 53 53 55 55 53 53 53 53 54 55 56 55 54 54 54 53 53 52 52 52 49 49 50 52 53 54 55 55 56 57 58 58 60 60 61 61 61 61 62 63 63 64 64 63 64 65 65 65 65 66 65 64 63
35 38 38 39 39 39 40 39 38 37 37 38 36 36 39 40 39 39 40 42 43 45 45 46 47 47 48 48 49 50 51 52 52 53 52 52 51 52 52 52 53 53 53 54 55 56 55 53 53 53 53 53 54 54 53 52 52 52 53 53 54 54 56 57 58 58 59 59 60 60 61 61 62 64 64 64 64 63 67 65 65 65 65 65 65
35 36 37 38 39 40 40 39 38 35 36 37 37 37 39 40 39 39 39 40 43 45 45 45 46 47 47 48 49 50 50 51 52 51 50 50 50 51 52 51 52 53 53 54 54 55 55 55 54 54 54 55 54 54 55 53 53 56 56 54 54 54 55 55 56 56 56 57 58 58 59 61 63 64 63 59 56 55 57 63 66 65 65 65 65
34 36 37 38 39 38 38 37 36 35 37 38 39 39 41 39 39 40 39 39 40 45 45 45 45 46 47 47 48 49 49 50 50 50 49 48 48 50 50 50 52 52 53 53 54 54 55 56 53 53 53 54 55 55 48 46 46 47 54 55 55 53 53 54 54 55 56 56 57 56 57 59 61 62 62 56 54 53 53 52 52 56 59 65 65
35 35 36 36 36 37 37 37 37 36 38 38 38 39 39 39 38 39 38 39 41 43 43 43 44 45 46 46 47 48 49 49 49 47 48 47 49 49 49 50 52 52 52 52 53 53 55 55 55 53 54 55 50 44 40 40 41 41 46 56 54 53 53 53 53 53 54 56 57 57 58 58 59 59 59 61 59 54 51 51 50 50 50 50 52
36 36 36 37 37 37 38 38 37 35 36 38 38 39 39 40 39 40 40 39 40 42 42 43 45 45 45 47 47 48 48 48 48 47 47 48 48 48 49 49 51 51 51 51 52 53 53 55 56 55 53 52 50 41 40 40 40 40 40 48 53 53 53 52 52 51 51 53 55 56 56 58 59 61 60 59 59 61 54 50 52 52 51 50 48
37 37 37 38 37 37 38 38 38 37 38 41 41 40 41 40 39 39 39 39 38 40 42 43 44 45 46 47 47 47 47 47 47 47 48 47 47 48 49 50 50 50 51 51 51 51 51 52 53 52 50 49 47 42 39 40 39 39 39 41 54 53 53 53 52 53 53 53 53 53 53 54 56 57 58 59 57 58 59 60 59 59 60 59 51
38 38 38 39 39 39 39 38 38 38 39 39 38 39 40 39 39 39 38 39 38 40 42 44 44 45 46 47 47 46 46 46 46 46 47 46 47 48 47 48 49 49 50 49 50 50 50 51 52 50 48 46 44 40 39 39 39 39 39 41 55 55 55 54 54 54 54 54 54 53 54 54 54 55 56 56 57 57 58 59 59 60 62 62 63
38 39 40 40 39 40 40 39 40 39 37 37 38 41 40 39 39 39 39 38 38 39 41 43 44 45 46 46 45 43 44 44 44 45 45 46 47 47 47 48 48 49 49 49 49 49 49 49 50 50 49 46 43 39 39 39 39 38 39 52 55 55 55 55 55 55 54 54 54 55 54 54 54 54 54 49 52 57 56 56 56 57 58 59 60
40 40 40 40 40 40 41 39 40 40 40 40 40 40 38 38 39 40 38 37 38 39 40 42 43 44 46 46 45 43 43 43 43 44 44 45 46 46 47 47 47 47 48 48 49 49 48 48 48 48 49 48 45 40 39 39 38 38 42 52 53 53 53 53 54 54 54 54 54 53 53 52 53 53 50 47 47 52 56 54 54 55 55 56 56
40 40 40 41 41 40 41 40 39 40 41 40 40 38 37 37 38 38 37 38 37 39 40 42 43 43 44 45 46 44 43 43 42 43 44 45 45 46 46 47 46 46 46 47 47 48 48 48 48 47 47 48 45 42 39 39 39 38 41 50 51 51 52 52 53 54 54 53 53 57 56 54 53 53 48 44 44 54 57 55 54 54 54 54 55
40 41 41 40 40 40 40 40 40 40 39 40 41 39 38 37 37 37 38 38 38 39 40 41 43 43 43 44 45 45 44 43 42 42 44 44 44 45 45 46 46 46 46 46 46 46 46 46 47 47 46 47 47 44 39 38 38 38 42 48 48 48 50 51 51 51 52 51 52 54 56 55 55 53 44 44 44 51 56 56 56 55 54 54 55
39 41 41 41 40 41 40 39 39 40 40 39 39 36 37 37 37 38 38 38 39 40 40 41 41 43 43 43 44 44 44 44 43 43 44 43 43 44 45 45 45 44 44 45 45 45 46 46 46 46 47 47 46 46 42 38 39 38 39 43 48 48 48 49 49 48 49 50 51 52 51 46 44 44 43 42 43 43 54 55 55 54 55 54 55
40 41 42 41 40 40 39 39 39 40 39 39 37 37 37 36 38 38 38 39 39 39 39 40 41 41 42 43 43 44 45 44 44 44 44 43 43 43 44 44 44 44 45 44 45 45 45 45 46 46 46 46 46 46 45 38 38 38 38 40 46 47 46 46 46 46 48 49 49 50 50 44 40 40 40 40 40 40 41 51 54 54 55 57 51
41 42 40 40 40 40 39 39 40 40 40 39 38 37 36 36 37 38 40 39 39 37 38 38 39 39 41 42 43 44 45 45 45 44 43 42 42 42 43 43 42 43 44 44 44 44 44 44 45 45 46 46 46 44 45 40 38 38 38 38 42 44 43 43 45 46 47 48 49 48 49 45 40 40 40 40 40 40 40 46 50 45 44 44 54
42 40 40 39 39 39 39 39 39 41 39 40 39 38 36 36 37 39 39 38 38 38 37 39 39 38 40 41 42 44 44 44 44 43 41 42 42 42 42 42 42 43 43 43 44 44 44 43 44 44 44 45 45 45 41 43 39 38 38 38 38 40 39 44 45 46 47 47 48 49 49 47 41 40 40 40 40 40 42 46 42 41 42 41 44
41 41 41 39 39 38 38 38 38 39 39 39 39 37 36 36 37 37 39 39 37 36 37 39 40 39 38 40 41 42 43 43 43 42 41 42 42 42 41 41 41 41 41 41 40 42 42 42 42 42 43 42 43 44 41 39 40 38 38 38 38 37 38 42 44 45 46 47 47 47 46 41 40 40 39 39 39 40 43 40 40 40 40 41 47
41 40 40 39 36 38 38 39 39 40 40 38 38 37 37 37 38 37 35 36 36 36 38 39 39 40 40 38 38 40 41 41 40 41 41 40 42 41 40 41 41 40 40 40 39 40 40 40 40 42 42 41 43 42 43 41 39 39 38 38 38 37 37 38 45 46 46 47 43 40 39 39 39 39 38 38 39 40 39 39 39 39 43 47 48
41 41 40 38 37 37 38 38 40 41 39 40 39 36 37 36 37 37 35 36 36 37 36 37 39 40 40 40 40 41 41 40 41 40 41 39 40 39 38 38 38 39 40 40 40 37 38 39 39 38 38 39 41 42 42 42 41 41 40 38 38 38 41 40 42 44 40 39 39 41 41 42 43 44 49 49 48 48 43 42 42 43 49 50 50
40 41 41 39 39 37 37 38 38 40 39 37 39 38 37 37 37 35 35 36 35 37 36 38 39 39 40 40 38 38 38 38 40 39 39 39 37 38 38 36 38 37 39 39 39 38 39 38 39 39 40 40 41 40 40 40 40 40 40 41 42 42 42 41 44 44 44 46 45 43 43 41 42 41 43 43 43 43 46 46 46 47 49 49 51
41 43 41 40 39 38 36 37 37 38 36 38 38 37 38 39 36 37 35 35 38 38 37 38 39 39 37 38 38 36 38 37 37 37 35 37 38 39 37 36 36 37 38 38 40 38 38 39 38 38 39 39 38 38 38 37 38 39 39 39 40 41 42 43 43 44 45 46 47 43 44 45 44 44 44 45 46 46 44 44 44 44 44 45 46
42 44 41 38 39 38 38 38 38 36 38 36 37 38 39 40 38 37 37 36 37 38 38 39 39 37 37 37 39 38 37 36 37 39 36 34 36 37 39 39 39 38 37 39 40 39 39 40 38 38 39 39 38 38 38 36 37 36 37 39 39 39 40 42 42 38 42 46 45 44 44 44 44 42 42 42 42 43 43 44 45 43 43 42 44
42 43 42 40 40 40 40 37 37 37 38 36 37 38 39 37 36 36 39 38 37 38 38 39 37 36 36 36 38 37 37 37 36 35 38 40 35 36 39 36 37 37 33 35 36 38 39 39 40 40 40 37 37 38 36 36 36 36 36 36 36 37 37 38 38 37 41 43 43 42 42 41 41 41 41 41 40 41 41 42 42 40 42 41 42
43 42 41 40 41 40 40 40 38 39 38 35 36 37 37 36 36 36 37 38 38 38 37 37 37 36 33 36 37 36 36 37 36 36 36 36 40 38 32 32 36 37 36 35 35 36 35 35 38 39 39 36 36 36 36 36 36 36 36 36 36 36 36 37 36 41 42 41 40 39 40 39 39 39 39 39 39 39 39 40 40 41 41 41 41